[[{"header":{"parameterUnit":"m.s-1","parameterCategory":1,"la1":30.2991,"la2":30.254,"lo1":-89.0895,"lo2":-89.0444,"dy":0.0017,"dx":0.0017,"nx":28,"ny":28,"refTime":"2025-09-09T03:00:00:Z","depth":0,"parameterNumber":2,"parameterNumberName":"U-component_of_WINDS"},"data":[0,0,0,0,0,0,0,0,0,0,0,0,0,0,0,0,0,0,0,0,0,0,0,0,0,0,0,0,0,0,0,0,0,0,0,0,0,0,0,0,0,0,0,0,0,0,0,0,0,0,0,0,0,0,0,0,0,0,-4.394,-4.394,0,-4.393,-4.3929,-4.3929,-4.381,-4.3807,-4.3804,-4.3801,-4.3798,-4.3801,-4.3804,0,0,0,0,0,0,0,0,0,0,0,0,0,-4.3865,-4.3867,-4.394,-4.394,-4.394,-4.393,-4.3929,-4.3929,-4.381,-4.3806,-4.3803,-4.3799,-4.3797,-4.3801,-4.3804,0,0,0,0,0,0,0,0,0,0,0,0,0,-4.388,-4.3867,-4.394,-4.3879,-4.3873,-4.393,-4.3929,-4.3929,-4.3811,-4.3806,-4.3802,-4.3798,-4.3796,-4.38,-4.3805,-4.3921,0,0,-4.3817,-4.3819,0,0,0,0,0,0,0,0,-4.388,-4.3883,-4.3888,-4.3883,-4.3877,-4.3866,-4.3902,-4.3927,-4.3812,-4.3835,-4.3801,-4.3795,-4.3825,-4.3827,-4.3835,-4.3921,-4.3921,-4.3818,-4.382,-4.3822,-4.3823,0,0,0,0,0,0,0,-4.3879,-4.3883,-4.3936,-4.3889,-4.3882,-4.3854,-4.3852,-4.3906,-4.3856,-4.3833,-4.3824,-4.3824,-4.3821,-4.3831,-4.3834,-4.3921,-4.3817,-4.3821,-4.3824,-4.3825,-4.4102,-4.4107,0,0,0,0,0,0,-4.3885,-4.3883,-4.3937,-4.3936,-4.3867,-4.3859,-4.3856,-4.3874,-4.3855,-4.3848,-4.3828,-4.3818,-4.3826,-4.3829,-4.3834,-4.3968,-4.3822,-4.3826,-4.3828,-4.4097,-4.4103,-4.4108,0,0,0,0,0,0,-4.3884,-4.3891,-4.3937,-4.3907,-4.3911,-4.3866,-4.3887,-4.3877,-4.3886,-4.3851,-4.3842,-4.3846,-4.3823,-4.3828,-4.39,-4.3967,-4.3828,-4.3831,-4.4091,-4.4099,-4.4106,-4.424,0,0,0,0,0,0,-4.3882,-4.3891,-4.3934,-4.3909,-4.3913,-4.4002,-4.3891,-4.388,-4.3893,-4.388,-4.3866,-4.386,-4.382,-4.3894,-4.3904,-4.397,-4.3835,-4.4085,-4.4095,-4.4103,-4.423,-4.4251,-4.427,0,0,0,0,0,-4.388,-4.3974,-4.3936,-4.3944,-4.3964,-4.4006,-4.4008,-4.3958,-4.3899,-4.3942,-4.3919,-4.386,-4.3958,-4.3902,-4.3912,-4.3981,-4.4081,-4.4092,-4.4103,-4.4221,-4.4247,-4.4269,0,0,0,0,0,0,-4.4011,-4.397,-4.3928,-4.4016,-4.4015,-4.3985,-4.4038,-4.3987,-4.4005,-4.3993,-4.3932,-4.393,-4.4012,-4.4003,-4.3943,-4.4093,-4.4009,-4.4022,-4.4095,-4.412,-4.414,-4.4141,-4.3838,0,0,0,0,0,-4.405,-4.4084,-4.4047,-4.4129,-4.413,-4.4085,-4.4101,-4.4061,-4.4059,-4.4059,-4.4041,-4.4044,-4.4075,-4.4097,-4.4123,-4.4227,-4.4223,-4.4279,-4.4299,-4.4316,-4.4329,-4.4383,-4.4408,-4.4144,-4.4144,-4.4144,0,0,-4.4132,-4.4113,-4.4139,-4.4155,-4.4149,-4.4189,-4.4085,-4.4132,-4.4161,-4.4067,-4.4133,-4.412,-4.4119,-4.4207,-4.4245,-4.4203,-4.44,-4.433,-4.4343,-4.4347,-4.4397,-4.4422,-4.4444,-4.4152,-4.415,-4.4149,0,0,-4.43,-4.4289,-4.4355,-4.4351,-4.4343,-4.4311,-4.4328,-4.4305,-4.4292,-4.4357,-4.4287,-4.4322,-4.4377,-4.4378,-4.4386,-4.4553,-4.4501,-4.4564,-4.467,-4.4723,-4.4744,-4.4762,-4.4823,-4.4845,-4.4577,-4.4577,-4.4577,0,-4.4403,-4.4457,-4.4397,-4.4447,-4.4456,-4.4369,-4.4437,-4.4437,-4.444,-4.4449,-4.44,-4.4466,-4.4459,-4.4546,-4.4587,-4.4596,-4.4614,-4.4566,-4.4745,-4.4763,-4.4779,-4.4836,-4.4859,-4.4585,-4.4584,-4.4583,-4.4582,0,-4.4584,-4.4623,-4.4678,-4.4679,-4.4694,-4.4753,-4.4704,-4.4727,-4.4686,-4.4661,-4.4728,-4.4716,-4.4738,-4.4756,-4.4718,-4.4838,-4.4812,-4.4756,-4.4671,-4.4813,-4.4866,-4.4887,-4.4596,-4.4593,-4.4591,-4.4589,0,0,-4.4838,-4.4802,-4.4823,-4.4822,-4.4806,-4.4836,-4.4891,-4.491,-4.4931,-4.4936,-4.4982,-4.5029,-4.4975,-4.4985,-4.4946,-4.4993,-4.5127,-4.493,-4.4929,-4.4968,-4.526,-4.5303,-4.5329,-4.5091,-4.5095,-4.5098,-4.526,0,-4.5,-4.509,-4.5036,-4.5135,-4.517,-4.5088,-4.5136,-4.5133,-4.511,-4.5139,-4.5115,-4.5149,-4.5076,-4.5081,-4.5124,-4.5102,-4.5185,-4.5089,-4.5136,-4.5138,-4.5139,-4.5356,-4.5403,-4.5556,-4.528,-4.5284,-4.5286,0,-4.5202,-4.5211,-4.5313,-4.5288,-4.5301,-4.5345,-4.5357,-4.5385,-4.538,-4.536,-4.5369,-4.5319,-4.5373,-4.5288,-4.5364,-4.53,-4.5315,-4.5307,-4.5312,-4.5316,-4.5222,-4.5367,-4.5604,-4.5628,-4.5318,-4.5315,-4.5313,0,-4.5377,-4.5416,-4.548,-4.5482,-4.5455,-4.5488,-4.5479,-4.5469,-4.5483,-4.5495,-4.5504,-4.5523,-4.5534,-4.5551,-4.5508,-4.5449,-4.559,-4.5501,-4.5577,-4.5578,-4.5612,-4.561,-4.5856,-4.562,-4.562,-4.5619,-4.5619,0,-4.5565,-4.5631,-4.5558,-4.5599,-4.567,-4.5609,-4.5682,-4.5664,-4.5656,-4.5693,-4.5624,-4.5661,-4.56,-4.5632,-4.5598,-4.5666,-4.5672,-4.5659,-4.565,-4.5666,-4.5668,-4.5677,-4.5665,-4.5626,-4.5624,-4.5623,-4.5622,0,-4.5774,-4.5728,-4.5793,-4.5761,-4.5755,-4.5809,-4.5782,-4.582,-4.5791,-4.5839,-4.5847,-4.5804,-4.5837,-4.5795,-4.5825,-4.5803,-4.5896,-4.587,-4.5897,-4.589,-4.5969,-4.5962,-4.6229,-4.6262,-4.6005,-4.6007,-4.6009,0,-4.5897,-4.5945,-4.5917,-4.5935,-4.5929,-4.5959,-4.5972,-4.5914,-4.5931,-4.5928,-4.5966,-4.5993,-4.6011,-4.6069,-4.6042,-4.6065,-4.604,-4.6132,-4.6043,-4.6058,-4.6042,-4.604,-4.6045,-4.6151,-4.6154,-4.6156,-4.6158,0,-4.6121,-4.6095,-4.6115,-4.6127,-4.6144,-4.6152,-4.6154,-4.6174,-4.6113,-4.6136,-4.6167,-4.6181,-4.621,-4.6239,-4.6254,-4.6247,-4.6194,-4.6186,-4.6205,-4.6223,-4.6237,-4.6231,-4.5947,-4.6181,-4.6178,-4.6177,-4.6176,-4.6175,-4.6291,-4.6329,-4.6315,-4.634,-4.6334,-4.6338,-4.6371,-4.6345,-4.6369,-4.6386,-4.6351,-4.6392,-4.6385,-4.6399,-4.6398,-4.6431,-4.6392,-4.6419,-4.6426,-4.6434,-4.6446,-4.623,-4.6434,-4.6433,-4.6432,-4.6432,-4.6431,0,-4.6512,-4.6498,-4.6521,-4.6525,-4.6545,-4.6488,-4.6488,-4.6509,-4.6544,-4.6541,-4.6559,-4.6596,-4.6622,-4.6597,-4.6619,-4.665,-4.6626,-4.6658,-4.6656,-4.6655,-4.648,-4.6462,-4.6677,-4.6676,-4.6676,-4.6676,-4.6676,-4.6676,-4.6629,-4.6691,-4.6664,-4.6723,-4.6709,-4.6745,-4.675,-4.6754,-4.675,-4.6793,-4.6813,-4.6795,-4.6783,-4.6803,-4.6826,-4.6817,-4.683,-4.687,-4.6854,-4.6691,-4.6667,-4.6645,-4.6627,-4.6873,-4.6873,-4.7026,-4.7028,-4.7029]},{"header":{"parameterUnit":"m.s-1","parameterCategory":1,"la1":30.2991,"la2":30.254,"lo1":-89.0895,"lo2":-89.0444,"dy":0.0017,"dx":0.0017,"nx":28,"ny":28,"refTime":"2025-09-09T03:00:00:Z","depth":0,"parameterNumber":3,"parameterNumberName":"V-component_of_WINDS"},"data":[0,0,0,0,0,0,0,0,0,0,0,0,0,0,0,0,0,0,0,0,0,0,0,0,0,0,0,0,0,0,0,0,0,0,0,0,0,0,0,0,0,0,0,0,0,0,0,0,0,0,0,0,0,0,0,0,0,0,-1.0763,-1.0764,0,-1.0876,-1.0877,-1.0879,-1.0902,-1.0901,-1.09,-1.0899,-1.1018,-1.1022,-1.1026,0,0,0,0,0,0,0,0,0,0,0,0,0,-1.0569,-1.0573,-1.0763,-1.0764,-1.0766,-1.0876,-1.0877,-1.0879,-1.0902,-1.0901,-1.09,-1.0899,-1.1017,-1.1021,-1.1026,0,0,0,0,0,0,0,0,0,0,0,0,0,-1.0665,-1.0574,-1.0763,-1.079,-1.0794,-1.0876,-1.0877,-1.0879,-1.0902,-1.0901,-1.09,-1.0898,-1.1015,-1.1021,-1.1027,-1.1089,0,0,-1.1045,-1.1048,0,0,0,0,0,0,0,0,-1.066,-1.0672,-1.0785,-1.0789,-1.0793,-1.0873,-1.0853,-1.095,-1.0903,-1.0861,-1.0899,-1.0898,-1.0971,-1.0981,-1.1005,-1.1095,-1.11,-1.1045,-1.1049,-1.1052,-1.1053,0,0,0,0,0,0,0,-1.0653,-1.0667,-1.0808,-1.0787,-1.0791,-1.0798,-1.081,-1.0871,-1.0922,-1.0865,-1.0867,-1.088,-1.0973,-1.0999,-1.1008,-1.1102,-1.1045,-1.1051,-1.1054,-1.1057,-1.125,-1.1251,0,0,0,0,0,0,-1.0641,-1.0662,-1.0804,-1.0811,-1.0722,-1.0803,-1.0816,-1.0849,-1.0922,-1.0931,-1.0881,-1.088,-1.0989,-1.1001,-1.1012,-1.1091,-1.1052,-1.1057,-1.1061,-1.1248,-1.125,-1.1252,0,0,0,0,0,0,-1.0637,-1.0654,-1.08,-1.0737,-1.0756,-1.0807,-1.0844,-1.0852,-1.0878,-1.0934,-1.0943,-1.0898,-1.0989,-1.1004,-1.107,-1.1095,-1.106,-1.1065,-1.1246,-1.1249,-1.1251,-1.1249,0,0,0,0,0,0,-1.0631,-1.0652,-1.0676,-1.0737,-1.0759,-1.0855,-1.0845,-1.0855,-1.0888,-1.0888,-1.0952,-1.0961,-1.0989,-1.1061,-1.1076,-1.1103,-1.107,-1.1244,-1.1248,-1.125,-1.1247,-1.1251,-1.1254,0,0,0,0,0,-1.0624,-1.0671,-1.0677,-1.0694,-1.079,-1.0856,-1.0869,-1.0899,-1.089,-1.0915,-1.095,-1.0959,-1.109,-1.1068,-1.1085,-1.1114,-1.1243,-1.1247,-1.125,-1.1245,-1.125,-1.1254,0,0,0,0,0,0,-1.0612,-1.068,-1.0687,-1.0755,-1.08,-1.086,-1.0893,-1.0903,-1.0952,-1.0951,-1.0987,-1.1001,-1.1066,-1.1096,-1.107,-1.1179,-1.1166,-1.1173,-1.1157,-1.1162,-1.1165,-1.1157,-1.1075,0,0,0,0,0,-1.0617,-1.0665,-1.0721,-1.0776,-1.0798,-1.0841,-1.0871,-1.089,-1.0939,-1.0958,-1.0999,-1.1046,-1.1097,-1.1131,-1.1182,-1.1251,-1.1266,-1.1279,-1.1283,-1.1285,-1.1292,-1.1332,-1.1339,-1.1263,-1.1263,-1.1263,0,0,-1.0629,-1.0672,-1.07,-1.0775,-1.0812,-1.0861,-1.0857,-1.0909,-1.0946,-1.0966,-1.1031,-1.1063,-1.1118,-1.1186,-1.1218,-1.1213,-1.1316,-1.129,-1.1292,-1.1297,-1.1336,-1.1343,-1.1349,-1.1266,-1.1265,-1.1265,0,0,-1.0675,-1.0712,-1.0762,-1.0798,-1.0854,-1.0882,-1.0894,-1.0953,-1.0974,-1.104,-1.1056,-1.1101,-1.1189,-1.1227,-1.1259,-1.1319,-1.1329,-1.1334,-1.1354,-1.1392,-1.1398,-1.1404,-1.1426,-1.1434,-1.134,-1.134,-1.134,0,-1.0683,-1.0757,-1.0786,-1.0838,-1.0871,-1.0889,-1.0941,-1.0975,-1.1045,-1.1067,-1.1061,-1.1172,-1.121,-1.1288,-1.1302,-1.1327,-1.1342,-1.1328,-1.1395,-1.1401,-1.1406,-1.1428,-1.1437,-1.134,-1.134,-1.134,-1.134,0,-1.0764,-1.0815,-1.0849,-1.0914,-1.0951,-1.1002,-1.104,-1.1073,-1.1089,-1.1118,-1.1185,-1.1232,-1.1292,-1.1312,-1.1328,-1.1392,-1.1388,-1.1387,-1.1376,-1.1413,-1.1435,-1.1443,-1.1341,-1.134,-1.134,-1.134,0,0,-1.0808,-1.0888,-1.09,-1.093,-1.0992,-1.1033,-1.1085,-1.1143,-1.1172,-1.1219,-1.1264,-1.1338,-1.1338,-1.1373,-1.1394,-1.1427,-1.1473,-1.1423,-1.1425,-1.1432,-1.1548,-1.1549,-1.1559,-1.148,-1.1481,-1.1483,-1.1544,0,-1.0863,-1.0956,-1.0983,-1.1061,-1.1109,-1.1127,-1.1173,-1.1216,-1.1245,-1.129,-1.1322,-1.1374,-1.1369,-1.1391,-1.1425,-1.146,-1.1497,-1.1456,-1.1524,-1.1526,-1.1511,-1.157,-1.1571,-1.1627,-1.1553,-1.1554,-1.1555,0,-1.094,-1.0987,-1.107,-1.1126,-1.1147,-1.1188,-1.1243,-1.1286,-1.1336,-1.1354,-1.1393,-1.1411,-1.1467,-1.145,-1.1529,-1.15,-1.1529,-1.1551,-1.1554,-1.1563,-1.1544,-1.1582,-1.1646,-1.1655,-1.1568,-1.1567,-1.1566,0,-1.0965,-1.105,-1.111,-1.1135,-1.1202,-1.123,-1.1259,-1.1307,-1.1341,-1.1389,-1.1412,-1.1466,-1.1497,-1.1539,-1.1572,-1.1556,-1.1648,-1.1634,-1.1666,-1.1665,-1.1686,-1.1684,-1.1757,-1.1701,-1.1701,-1.1701,-1.1701,0,-1.1025,-1.1075,-1.1123,-1.116,-1.1217,-1.1248,-1.1304,-1.1334,-1.1377,-1.1422,-1.144,-1.1482,-1.1521,-1.1568,-1.1593,-1.1655,-1.1668,-1.1686,-1.1692,-1.1685,-1.1683,-1.1706,-1.1704,-1.1703,-1.1703,-1.1702,-1.1702,0,-1.1063,-1.1097,-1.1165,-1.1221,-1.1237,-1.1277,-1.1326,-1.1364,-1.1392,-1.1448,-1.1463,-1.1508,-1.1564,-1.16,-1.1672,-1.1689,-1.1757,-1.1762,-1.174,-1.1744,-1.1774,-1.1771,-1.1865,-1.188,-1.1813,-1.1814,-1.1814,0,-1.11,-1.1139,-1.12,-1.123,-1.1259,-1.1308,-1.1342,-1.1374,-1.1409,-1.1468,-1.1499,-1.1556,-1.1603,-1.1692,-1.1733,-1.1788,-1.1795,-1.1824,-1.1803,-1.1795,-1.1797,-1.1795,-1.18,-1.1828,-1.1828,-1.1829,-1.1829,0,-1.1162,-1.1176,-1.1224,-1.1277,-1.1317,-1.136,-1.1404,-1.1428,-1.1468,-1.1506,-1.1563,-1.16,-1.1672,-1.173,-1.1788,-1.1819,-1.1832,-1.1835,-1.1846,-1.184,-1.1826,-1.1836,-1.1751,-1.1833,-1.1833,-1.1832,-1.1832,-1.1832,-1.1202,-1.1238,-1.1286,-1.1338,-1.1374,-1.1415,-1.1453,-1.1485,-1.1533,-1.1595,-1.161,-1.167,-1.172,-1.1799,-1.1832,-1.188,-1.1876,-1.1891,-1.1896,-1.1899,-1.19,-1.1817,-1.189,-1.189,-1.189,-1.189,-1.189,0,-1.1266,-1.1298,-1.1345,-1.1406,-1.1447,-1.1453,-1.1501,-1.1536,-1.1588,-1.1632,-1.1679,-1.1745,-1.18,-1.1844,-1.1901,-1.1931,-1.1938,-1.1945,-1.1944,-1.1952,-1.19,-1.1885,-1.1938,-1.1938,-1.1938,-1.1938,-1.1938,-1.1938,-1.1305,-1.1366,-1.1386,-1.1465,-1.1497,-1.1555,-1.1582,-1.162,-1.1656,-1.1728,-1.1774,-1.1801,-1.1846,-1.1906,-1.1957,-1.1969,-1.199,-1.1996,-1.2009,-1.196,-1.1955,-1.195,-1.1937,-1.2,-1.2,-1.2057,-1.2058,-1.2058]}]]